Date,TemperatureHighF,TemperatureAvgF,TemperatureLowF,DewpointHighF,DewpointAvgF,DewpointLowF,HumidityHigh,HumidityAvg,HumidityLow,PressureMaxIn,PressureMinIn,WindSpeedMaxMPH,WindSpeedAvgMPH,GustSpeedMaxMPH,PrecipitationSumIn
2014-1-1,-1.6,-6.4,-11.2,-11.1,-14.9,-18.8,70,66,61,30.57,30.47,6,1,6,0.00
2014-1-2,-0.6,-10.1,-17.8,-12.9,-18.5,-24.1,75,66,50,30.58,30.41,5,1,5,0.00
2014-1-3,30.4,8.8,-14.6,29.6,4.4,-20.5,97,82,67,30.43,29.26,27,12,27,0.00
2014-1-4,34.3,9.5,-7.7,32.0,2.8,-15.2,97,74,59,30.24,29.26,24,6,24,0.00
2014-1-5,-7.7,-14.4,-23.6,-15.1,-22.8,-32.7,74,65,57,30.39,30.25,8,2,14,0.00
2014-1-6,-14.8,-20.4,-24.6,-21.4,-28.8,-33.6,73,64,60,30.35,30.17,8,3,8,0.00
2014-1-7,1.8,-7.0,-16.1,-7.6,-14.3,-24.1,74,70,62,30.23,30.10,8,2,8,0.00
2014-1-8,-1.2,-8.4,-15.1,-10.3,-15.2,-21.2,79,71,62,30.44,30.23,5,1,6,0.00
2014-1-9,18.0,9.5,-7.9,14.8,4.7,-16.4,91,80,74,30.40,29.76,26,11,27,0.00
2014-1-10,28.4,23.8,16.4,28.4,23.2,14.0,100,98,90,29.76,29.39,17,5,19,0.00
2014-1-11,28.4,23.4,17.3,28.4,22.3,15.6,100,96,89,29.58,29.37,13,2,13,0.00
2014-1-12,37.8,30.9,20.2,32.3,27.2,17.9,96,86,78,29.52,29.20,18,4,18,0.01
2014-1-13,33.1,25.0,20.0,27.9,20.1,14.3,95,82,70,29.58,29.39,19,4,20,0.00
2014-1-14,24.2,15.2,4.3,22.8,11.0,-2.4,97,83,69,30.10,29.40,21,6,21,0.00
2014-1-15,33.1,10.9,2.2,27.6,6.3,-3.2,91,81,72,30.10,29.29,24,6,24,0.00
2014-1-16,34.7,14.6,3.0,32.2,8.6,-5.2,99,77,60,29.89,29.26,35,9,35,0.00
2014-1-17,11.4,2.1,-5.9,4.5,-4.2,-11.5,84,74,61,30.04,29.67,19,3,19,0.00
2014-1-18,19.1,13.7,9.7,15.6,10.3,2.9,91,86,77,29.90,29.44,16,4,16,0.00
2014-1-19,34.6,28.3,17.3,27.2,23.9,13.5,93,84,71,29.66,29.34,19,5,19,0.01
2014-1-20,27.5,9.8,-9.8,24.1,2.4,-20.0,89,72,52,30.44,29.60,24,4,24,0.00
2014-1-21,1.1,-10.3,-22.9,-2.8,-17.0,-30.1,83,72,59,30.46,29.95,7,2,7,0.00
2014-1-22,4.5,-2.2,-14.3,0.3,-9.3,-22.4,85,71,60,30.52,29.94,14,5,19,0.00
2014-1-23,-4.1,-14.2,-20.8,-12.3,-21.6,-27.8,76,68,64,30.74,30.49,8,2,8,0.00
2014-1-24,32.2,25.0,11.1,31.9,19.6,-0.4,99,80,47,29.92,29.39,29,8,29,0.00
2014-1-25,17.7,3.5,-1.6,1.4,-7.7,-12.7,84,60,41,29.89,29.44,25,5,26,0.00
2014-1-26,12.8,2.8,-12.8,9.4,-2.4,-21.5,88,78,64,30.09,29.34,35,6,35,0.00
2014-1-27,-10.3,-15.0,-19.3,-19.6,-23.8,-28.0,71,63,60,30.42,30.05,14,3,14,0.00
2014-1-28,-1.8,-11.7,-22.0,-11.9,-19.2,-28.9,73,68,59,30.38,30.06,10,1,10,0.00
2014-1-29,28.2,9.4,-12.0,20.2,1.4,-18.5,79,70,55,30.06,29.47,19,6,24,0.00
2014-1-30,21.3,7.9,-10.7,14.5,2.8,-16.9,92,79,67,30.01,29.39,20,4,20,0.00
2014-1-31,6.3,-4.7,-14.8,-1.4,-10.8,-20.4,83,74,67,30.10,29.93,11,2,12,0.00
2014-2-1,15.7,6.5,-4.3,8.3,-0.2,-10.7,83,74,62,30.17,29.82,15,4,21,0.00
2014-2-2,11.2,-1.2,-15.6,3.4,-6.6,-21.4,85,77,66,30.25,30.11,12,2,12,0.00
2014-2-3,12.9,5.5,-4.6,4.6,-1.1,-9.4,85,74,61,30.31,30.09,11,2,11,0.00
2014-2-4,9.7,0.4,-4.3,0.9,-8.2,-13.6,81,67,54,30.48,30.30,13,3,13,0.00
2014-2-5,1.3,-3.4,-8.4,-5.8,-11.1,-15.2,78,69,60,30.53,30.47,11,3,16,0.00
2014-2-6,1.5,-6.3,-14.6,-6.3,-12.4,-20.5,80,74,66,30.48,30.16,16,3,16,0.00
2014-2-7,8.8,-2.0,-11.2,-3.1,-9.7,-17.7,84,69,54,30.18,30.08,17,4,17,0.00
2014-2-8,13.6,4.0,-3.3,5.9,-0.9,-7.7,87,80,71,30.14,30.04,8,1,8,0.00
2014-2-9,2.4,-3.5,-9.8,-5.1,-11.2,-16.9,76,69,59,30.38,30.14,11,3,14,0.00
2014-2-10,2.2,-6.3,-13.0,-8.3,-14.1,-20.0,77,68,59,30.47,30.37,10,2,10,0.00
2014-2-11,14.0,0.5,-15.1,9.8,-5.1,-21.1,84,77,70,30.43,29.94,26,8,26,0.00
2014-2-12,22.1,15.7,11.4,14.1,11.1,7.8,92,82,60,30.03,29.64,19,5,20,0.00
2014-2-13,27.9,13.0,0.1,25.4,8.9,-5.5,96,84,73,29.72,29.31,27,9,27,0.00
2014-2-14,12.1,2.5,-3.5,2.7,-4.1,-8.2,81,74,62,30.01,29.69,14,3,14,0.00
2014-2-15,18.9,8.6,-5.2,14.0,4.0,-9.8,88,81,73,30.01,29.71,17,4,17,0.00
2014-2-16,19.5,12.1,1.7,13.8,5.8,-1.8,87,76,63,30.17,29.82,27,5,27,0.00
2014-2-17,28.7,21.8,18.4,25.0,19.2,12.8,97,90,77,29.84,29.58,31,7,31,0.01
2014-2-18,38.9,27.3,17.8,29.1,22.4,14.8,97,82,64,29.68,29.44,18,5,18,0.00
2014-2-19,37.0,26.4,9.5,31.5,22.8,6.9,98,87,75,29.73,29.49,25,6,25,0.00
2014-2-20,36.8,27.5,10.2,32.5,25.5,7.9,100,92,80,29.51,29.28,25,6,25,0.16
2014-2-21,11.1,6.7,0.9,7.9,3.0,-3.0,90,84,81,29.73,29.30,22,5,22,0.00
2014-2-22,10.5,4.7,-0.2,3.3,-1.3,-5.5,81,76,70,30.10,29.72,15,3,15,0.00
2014-2-23,12.3,5.2,-1.0,4.0,-1.5,-6.5,79,73,66,30.25,30.08,20,4,20,0.00
2014-2-24,7.9,1.1,-6.5,0.4,-5.9,-12.1,82,72,60,30.32,30.23,14,2,14,0.01
2014-2-25,2.0,-5.0,-10.5,-9.1,-13.3,-18.9,79,67,56,30.35,30.26,16,4,16,0.00
2014-2-26,16.7,-0.4,-17.2,8.1,-8.6,-23.2,76,68,50,30.34,29.61,29,7,29,0.00
2014-2-27,-4.6,-11.0,-19.6,-17.0,-25.1,-32.3,60,49,40,30.19,29.90,11,2,12,0.00
2014-2-28,12.9,1.2,-9.3,5.6,-7.6,-20.4,74,66,56,30.17,29.84,15,4,18,0.00
2014-3-1,-2.8,-7.5,-14.6,-10.4,-19.8,-26.7,69,54,44,30.54,30.17,16,3,16,0.00
2014-3-2,-0.2,-9.0,-19.6,-11.3,-19.4,-28.3,68,59,51,30.57,30.49,12,2,12,0.00
2014-3-3,6.1,-1.8,-13.8,1.0,-9.7,-20.8,80,68,60,30.52,30.17,11,2,11,0.00
2014-3-4,15.6,10.0,4.8,6.4,3.5,0.3,84,75,64,30.23,30.10,11,1,11,0.00
2014-3-5,22.5,13.9,4.3,11.8,6.2,-2.1,84,72,58,30.38,30.22,18,4,18,0.00
2014-3-6,24.7,19.5,10.7,23.8,17.2,6.6,97,91,83,30.22,29.67,28,13,31,0.00
2014-3-7,29.4,24.6,19.2,29.4,20.5,12.9,100,85,73,30.14,29.65,18,6,21,0.00
2014-3-8,25.0,16.5,6.0,16.6,10.6,2.1,90,78,64,30.27,30.05,12,3,12,0.00
2014-3-9,39.3,30.3,12.4,34.9,25.7,7.4,90,83,75,30.09,29.52,21,6,21,0.00
2014-3-10,47.9,40.9,32.8,36.1,34.2,30.2,91,77,61,29.60,29.49,20,4,20,0.00
2014-3-11,42.5,36.2,25.1,33.2,27.5,18.3,86,71,52,29.97,29.59,24,7,24,0.00
2014-3-12,25.1,20.8,13.1,18.9,12.1,6.4,82,69,49,30.07,29.91,12,3,16,0.00
2014-3-13,47.3,35.8,23.8,40.8,31.5,18.6,99,85,69,29.90,29.40,16,6,16,0.00
2014-3-14,43.8,34.1,22.9,36.9,28.0,14.9,91,78,64,29.87,29.39,32,8,32,0.00
2014-3-15,28.5,21.9,16.2,16.2,12.6,4.9,85,68,44,30.36,29.88,11,2,14,0.00
2014-3-16,23.3,16.7,6.9,18.9,6.7,-0.2,83,64,48,30.42,29.85,20,4,20,0.00
2014-3-17,35.9,29.6,23.3,29.1,25.0,18.9,91,83,74,29.85,29.42,24,9,24,0.02
2014-3-18,30.6,27.8,25.1,29.8,26.2,22.2,100,94,76,29.76,29.50,14,3,18,0.08
2014-3-19,34.4,29.1,24.7,29.4,25.8,21.7,98,88,71,29.89,29.74,18,4,18,0.26
2014-3-20,41.3,31.8,21.1,33.5,27.8,20.4,100,86,62,29.91,29.73,11,3,12,0.03
2014-3-21,37.9,30.9,12.3,34.6,25.9,6.2,94,81,68,30.14,29.60,29,9,29,0.00
2014-3-22,18.3,11.3,4.8,8.0,2.4,-3.3,76,67,59,30.47,30.14,19,5,19,0.00
2014-3-23,24.5,15.0,5.2,12.2,6.5,0.6,85,69,53,30.47,30.27,12,2,12,0.00
2014-3-24,27.6,20.7,13.6,19.8,12.7,6.7,88,72,45,30.28,30.04,22,3,22,0.02
2014-3-25,22.4,15.0,7.4,9.8,4.0,-2.8,72,61,52,30.23,30.07,21,4,21,0.00
2014-3-26,39.6,27.2,11.6,29.2,17.9,5.5,83,68,55,30.07,29.39,29,10,29,0.00
2014-3-27,39.2,34.3,28.2,38.3,33.4,27.5,100,97,70,29.69,29.34,22,6,22,0.18
2014-3-28,31.2,26.0,17.8,27.5,17.3,11.2,97,70,52,30.18,29.69,12,3,12,0.07
2014-3-29,39.2,30.0,17.8,30.4,18.6,7.6,82,63,44,30.19,29.87,22,6,22,0.02
2014-3-30,54.2,42.7,35.0,43.2,35.7,30.4,89,77,60,29.87,29.62,29,7,29,0.00
2014-3-31,48.6,42.5,34.9,44.0,37.8,32.9,96,84,71,29.62,29.18,11,4,16,0.01
2014-4-1,34.7,24.2,16.9,33.9,19.4,12.0,98,82,73,30.04,29.27,20,7,29,0.01
2014-4-2,37.2,28.1,16.2,25.5,19.1,12.0,84,70,54,30.12,29.97,12,3,12,0.00
2014-4-3,34.4,31.7,26.3,32.0,28.0,23.9,100,87,67,29.97,29.74,18,4,18,0.00
2014-4-4,40.8,30.9,25.1,33.2,27.7,24.6,100,89,53,29.95,29.69,24,7,24,0.19
2014-4-5,43.3,34.4,23.3,38.5,31.0,23.0,99,88,74,29.98,29.79,20,7,26,0.01
2014-4-6,59.2,46.3,34.4,44.8,36.3,30.9,88,69,44,29.79,29.65,17,4,17,0.00
2014-4-7,56.0,48.1,40.9,43.6,37.0,28.4,87,67,38,29.72,29.61,21,6,21,0.00
2014-4-8,49.4,40.9,33.1,35.7,30.5,27.0,87,68,44,29.90,29.72,19,5,19,0.00
2014-4-9,69.1,51.1,34.1,53.4,39.4,28.4,84,65,50,29.84,29.32,25,9,25,0.00
2014-4-10,57.5,49.3,39.3,40.4,30.3,19.9,77,50,25,29.79,29.41,27,7,27,0.00
2014-4-11,61.5,50.9,40.1,40.3,33.2,26.5,90,53,28,29.82,29.72,14,2,14,0.00
2014-4-12,55.9,48.4,41.2,46.0,40.5,28.2,98,75,37,29.75,29.56,20,4,20,0.07
2014-4-13,41.2,36.8,30.4,38.5,30.9,21.0,95,80,61,29.90,29.61,26,6,26,0.00
2014-4-14,34.7,27.9,21.1,21.5,12.7,4.1,71,54,29,30.06,29.88,26,8,26,0.00
2014-4-15,34.6,25.1,14.4,15.1,8.8,3.1,76,52,29,30.10,29.93,12,3,12,0.00
2014-4-16,31.8,28.2,26.4,28.7,25.2,11.7,100,90,43,29.97,29.80,21,5,21,0.00
2014-4-17,36.3,29.6,23.6,34.9,27.7,21.8,100,93,73,30.22,29.97,17,3,17,0.11
2014-4-18,46.5,36.6,25.7,30.7,26.8,21.1,86,68,52,30.25,30.01,16,4,17,0.00
2014-4-19,58.7,48.5,39.9,51.9,40.9,29.3,89,75,60,30.01,29.84,32,9,32,0.00
2014-4-20,72.1,58.0,40.5,45.9,39.4,29.6,90,55,25,29.91,29.77,11,2,11,0.00
2014-4-21,62.4,55.2,43.3,51.1,37.1,30.0,82,51,33,29.97,29.70,21,8,24,0.00
2014-4-22,58.7,47.7,33.7,38.0,32.4,26.6,88,57,37,30.04,29.91,14,3,14,0.00
2014-4-23,46.7,41.3,38.8,38.6,33.9,26.1,97,77,47,29.94,29.76,17,6,20,0.32
2014-4-24,44.1,40.9,37.5,41.4,39.2,36.4,100,94,85,29.76,29.57,17,3,17,0.17
2014-4-25,60.9,46.6,34.4,47.3,40.0,33.3,100,80,48,29.80,29.58,19,4,19,0.00
2014-4-26,53.6,43.3,32.8,40.3,33.1,30.2,93,69,42,29.89,29.74,21,5,21,0.09
2014-4-27,43.9,39.0,36.2,39.1,37.1,35.8,100,93,79,29.76,29.50,30,8,30,1.28
2014-4-28,42.8,40.1,38.8,39.8,38.7,35.3,99,95,84,29.60,29.47,27,8,27,1.57
2014-4-29,44.5,38.4,34.9,37.9,34.6,32.0,98,87,65,29.70,29.57,25,5,25,0.16
2014-4-30,44.1,39.1,35.3,41.4,37.2,34.6,98,93,85,29.69,29.66,18,7,20,0.07
2014-5-1,48.5,41.6,36.5,42.8,37.9,35.7,98,87,72,29.73,29.63,19,7,19,0.11
2014-5-2,58.0,47.8,36.8,45.3,38.7,34.0,97,73,43,29.71,29.45,25,6,25,0.00
2014-5-3,56.2,48.2,41.1,41.4,34.9,30.1,81,61,40,29.86,29.59,27,7,27,0.00
2014-5-4,56.2,45.0,31.5,39.7,29.3,22.7,88,57,31,30.01,29.85,13,3,17,0.00
2014-5-5,64.2,53.7,44.8,38.3,35.9,31.7,74,53,33,29.88,29.75,13,2,13,0.01
2014-5-6,61.2,54.1,43.2,40.5,37.9,32.5,83,56,36,29.85,29.62,25,7,25,0.00
2014-5-7,64.2,56.2,49.4,54.5,44.9,37.4,100,67,53,29.66,29.50,18,6,18,0.70
2014-5-8,56.5,51.7,46.8,55.4,51.5,46.8,100,99,91,29.62,29.34,19,3,19,0.46
2014-5-9,55.7,49.6,44.5,52.8,43.3,38.0,100,80,55,29.67,29.33,24,6,24,0.01
2014-5-10,67.3,54.1,40.9,54.5,44.0,34.6,93,71,41,29.72,29.60,22,4,22,0.05
2014-5-11,65.5,57.6,47.9,55.4,51.9,47.9,100,83,58,29.74,29.61,17,2,17,0.38
2014-5-12,54.7,49.2,46.5,54.7,49.0,43.4,100,99,90,29.69,29.53,19,4,19,0.22
2014-5-13,51.3,45.5,39.8,43.4,39.1,34.4,91,79,59,30.06,29.69,26,7,26,0.00
2014-5-14,54.8,45.1,35.3,40.3,34.0,27.6,93,67,41,30.11,30.06,18,4,18,0.00
2014-5-15,45.7,41.6,37.3,33.7,31.3,27.6,84,67,53,30.10,30.01,19,5,19,0.00
2014-5-16,53.8,45.6,38.3,33.9,27.9,19.2,77,52,29,30.01,29.92,16,3,16,0.00
2014-5-17,66.8,52.9,34.9,37.5,31.9,26.3,82,49,24,29.93,29.82,19,2,19,0.00
2014-5-18,71.8,59.7,44.1,46.7,37.8,32.2,72,46,27,29.90,29.77,30,7,30,0.00
2014-5-19,60.1,54.4,49.6,53.5,49.2,39.5,100,85,48,29.79,29.58,26,11,26,1.50
2014-5-20,76.8,63.1,53.2,60.4,55.5,48.3,100,80,39,29.72,29.60,12,2,12,0.01
2014-5-21,63.5,56.5,49.8,51.8,47.0,44.1,87,71,56,30.01,29.70,20,6,20,0.00
2014-5-22,70.3,57.9,42.9,49.2,44.1,38.5,97,63,33,30.07,30.00,12,2,12,0.00
2014-5-23,75.6,65.5,49.9,51.6,45.9,39.8,80,50,31,30.07,29.93,15,3,15,0.06
2014-5-24,80.3,70.2,57.2,53.2,48.7,45.0,71,48,31,29.95,29.83,21,7,21,0.00
2014-5-25,76.7,68.1,55.0,63.0,56.5,47.5,85,67,53,29.86,29.69,22,6,22,0.00
2014-5-26,82.6,69.5,62.6,67.8,64.6,61.7,100,86,53,29.73,29.67,21,2,21,0.48
2014-5-27,72.5,66.3,60.9,68.6,63.9,59.2,100,92,69,29.84,29.70,8,1,11,0.55
2014-5-28,80.1,68.2,54.1,62.0,55.4,49.0,92,65,45,29.92,29.83,14,1,14,0.00
2014-5-29,82.0,70.8,54.7,57.8,50.7,44.2,92,53,27,29.94,29.85,16,2,16,0.00
2014-5-30,85.7,75.6,66.0,68.8,60.9,47.8,92,61,44,29.93,29.80,16,5,21,0.10
2014-5-31,77.0,70.2,64.2,70.8,67.0,64.2,100,90,77,29.86,29.68,11,2,22,1.13
2014-6-1,77.6,68.5,64.2,70.6,66.2,63.3,100,93,67,29.68,29.53,29,6,29,0.34
2014-6-2,75.4,66.4,58.1,65.9,60.6,51.4,100,83,62,29.70,29.49,19,5,28,0.17
2014-6-3,73.2,64.4,54.1,57.8,52.9,46.5,94,69,40,29.81,29.66,13,2,13,0.00
2014-6-4,79.6,68.6,55.1,57.5,53.3,44.9,98,62,31,29.74,29.66,11,0,11,0.00
2014-6-5,69.8,65.2,59.8,61.7,58.4,51.7,94,79,59,29.72,29.65,25,5,25,0.08
2014-6-6,80.1,68.5,57.0,65.1,58.6,53.3,100,74,45,29.79,29.70,17,2,17,0.01
2014-6-7,66.8,58.9,52.0,53.5,50.6,45.5,98,76,48,29.93,29.76,19,3,19,0.46
2014-6-8,71.5,61.9,48.0,51.0,43.4,34.9,95,55,28,29.98,29.88,10,0,10,0.00
2014-6-9,73.2,63.8,56.5,52.0,46.8,38.5,79,57,29,29.91,29.80,12,1,12,0.00
2014-6-10,76.7,67.5,52.0,56.3,52.6,46.9,96,61,37,29.81,29.67,13,2,18,0.00
2014-6-11,79.0,69.2,61.8,63.2,57.5,52.9,99,68,45,29.69,29.45,20,4,20,0.58
2014-6-12,64.3,57.5,52.9,63.9,47.7,39.5,99,71,46,29.85,29.46,26,9,26,0.01
2014-6-13,73.9,63.9,52.2,52.3,46.8,41.4,85,56,33,29.88,29.68,13,2,13,0.00
2014-6-14,65.8,60.9,55.6,59.2,54.5,47.5,100,80,55,29.74,29.52,28,6,28,1.38
2014-6-15,72.5,63.7,57.6,60.5,56.9,52.6,100,80,53,29.64,29.32,30,7,30,0.45
2014-6-16,78.1,66.7,56.3,66.2,58.1,52.5,97,75,54,29.73,29.37,36,4,36,0.35
2014-6-17,80.5,70.7,59.6,67.7,62.2,55.7,91,75,60,29.69,29.51,10,1,10,0.00
2014-6-18,77.6,70.6,63.2,68.6,65.2,59.8,99,83,70,29.73,29.58,19,4,19,0.20
2014-6-19,74.2,68.9,64.5,68.4,65.7,61.7,100,90,75,29.79,29.64,30,8,30,1.08
2014-6-20,81.2,71.6,62.9,69.4,63.7,57.2,100,79,46,29.78,29.64,20,3,20,0.01
2014-6-21,82.0,73.0,61.0,65.1,61.9,58.4,100,70,47,29.74,29.65,12,1,12,0.00
2014-6-22,77.9,70.3,65.0,68.3,64.6,60.3,97,82,66,29.73,29.59,7,0,7,0.17
2014-6-23,78.3,71.5,63.1,66.7,60.5,54.1,100,71,44,29.70,29.61,12,2,12,0.00
2014-6-24,78.5,70.8,61.3,62.9,59.7,55.8,94,70,47,29.80,29.70,14,2,14,0.00
2014-6-25,69.3,60.1,52.8,61.2,56.0,52.8,100,87,69,29.92,29.80,11,1,11,0.00
2014-6-26,80.7,66.9,54.5,69.8,61.9,53.1,98,85,61,29.89,29.67,37,2,37,0.69
2014-6-27,79.4,72.4,67.9,71.1,68.0,66.6,98,87,69,29.69,29.53,22,7,22,0.20
2014-6-28,79.9,73.8,68.6,72.7,69.6,59.2,94,87,66,29.56,29.41,22,9,28,0.08
2014-6-29,82.0,72.4,62.3,63.1,57.3,45.9,96,63,30,29.52,29.45,28,7,28,0.00
2014-6-30,78.3,70.8,63.1,58.6,54.4,46.9,79,57,34,29.49,29.32,21,6,31,0.00
2014-7-1,68.8,62.2,55.1,61.0,55.8,49.5,94,80,65,29.71,29.33,27,6,27,0.10
2014-7-2,72.8,64.6,53.5,52.4,47.8,43.1,92,58,35,29.95,29.71,14,5,18,0.00
2014-7-3,76.3,67.3,58.9,53.2,48.0,42.0,74,52,31,30.04,29.95,8,1,8,0.00
2014-7-4,77.4,68.0,57.0,60.5,54.8,46.5,82,63,50,30.07,29.87,24,6,24,0.00
2014-7-5,84.3,74.6,66.0,68.9,64.5,59.8,85,71,54,29.90,29.63,25,9,25,0.00
2014-7-6,84.3,76.0,68.1,73.9,66.7,59.5,98,75,52,29.68,29.51,22,6,22,0.13
2014-7-7,81.6,70.0,61.3,68.1,62.6,55.4,99,79,51,29.60,29.48,19,2,19,0.50
2014-7-8,71.8,64.8,59.2,59.6,55.4,49.9,93,73,47,29.76,29.49,20,6,20,0.00
2014-7-9,77.9,67.4,54.1,58.0,54.0,50.7,96,64,40,29.84,29.76,11,1,11,0.00
2014-7-10,82.0,71.7,58.3,65.7,59.1,49.9,86,65,48,29.86,29.73,19,4,19,0.00
2014-7-11,81.1,72.2,66.1,73.8,67.4,60.2,99,86,68,29.81,29.69,28,6,28,0.69
2014-7-12,75.4,70.4,64.7,72.7,65.7,61.2,100,86,62,29.83,29.75,13,1,13,0.02
2014-7-13,74.2,66.6,56.3,63.7,52.3,43.3,97,63,34,29.83,29.72,17,3,18,0.00
2014-7-14,63.4,58.4,54.2,51.6,48.9,43.6,88,71,58,29.94,29.73,31,7,31,0.00
2014-7-15,70.8,61.3,52.9,52.2,49.9,45.9,87,67,46,29.96,29.87,20,4,20,0.00
2014-7-16,75.3,65.1,53.2,55.8,51.7,46.7,92,64,38,29.92,29.83,6,0,6,0.00
2014-7-17,78.5,68.6,56.2,58.5,54.6,49.3,85,63,38,29.86,29.80,11,1,11,0.00
2014-7-18,77.2,68.9,59.0,63.9,58.4,54.7,88,70,54,29.83,29.71,25,5,25,0.00
2014-7-19,75.4,69.3,65.6,67.8,62.7,59.3,95,80,71,29.72,29.68,19,6,19,0.00
2014-7-20,84.1,73.6,63.7,70.6,67.2,63.1,99,82,61,29.68,29.58,26,5,26,0.00
2014-7-21,88.0,80.7,72.1,76.8,73.1,69.1,92,78,67,29.68,29.56,21,6,21,0.00
2014-7-22,81.4,73.1,63.4,75.4,61.0,52.0,90,68,41,30.02,29.56,21,6,21,0.00
2014-7-23,79.2,69.2,57.0,60.1,54.9,47.7,92,64,35,30.10,29.98,14,1,14,0.00
2014-7-24,77.9,67.8,56.6,64.6,58.1,50.8,92,72,44,29.99,29.60,29,2,29,0.04
2014-7-25,79.4,71.0,63.1,72.1,66.2,58.9,100,85,68,29.68,29.53,21,4,21,0.12
2014-7-26,84.1,74.0,63.2,70.3,63.7,52.9,100,73,36,29.65,29.58,16,3,16,0.01
2014-7-27,73.7,66.1,60.7,63.9,59.3,54.6,98,79,62,29.98,29.61,22,4,22,0.18
2014-7-28,73.9,66.5,61.2,61.1,57.6,51.9,97,75,47,30.06,29.98,12,3,12,0.00
2014-7-29,77.2,68.1,58.7,60.5,55.2,52.7,84,65,45,29.99,29.89,14,3,14,0.00
2014-7-30,78.5,69.8,59.9,60.7,56.4,53.3,84,64,44,29.93,29.85,11,2,11,0.00
2014-7-31,81.2,70.3,56.3,61.0,56.6,50.8,93,64,38,29.88,29.82,8,1,8,0.00
2014-8-1,83.2,72.2,60.4,66.2,60.6,56.4,90,68,44,29.89,29.83,8,0,8,0.00
2014-8-2,82.4,70.7,60.5,68.8,63.0,58.5,100,78,47,29.94,29.89,24,1,24,0.08
2014-8-3,83.8,73.4,63.4,67.0,63.3,56.9,94,73,41,29.94,29.85,8,0,8,0.00
2014-8-4,77.6,68.9,59.6,65.1,58.7,54.1,95,72,46,29.93,29.88,12,1,12,0.00
2014-8-5,78.8,66.9,56.5,61.9,57.5,54.2,99,75,43,29.98,29.91,8,0,8,0.00
2014-8-6,81.1,67.4,56.9,63.4,58.9,54.4,96,76,47,29.94,29.85,11,0,11,0.00
2014-8-7,80.7,70.7,58.6,63.5,59.4,54.3,98,70,42,29.92,29.83,16,1,16,0.00
2014-8-8,76.5,69.1,65.2,64.0,61.2,59.4,85,76,62,29.92,29.84,13,1,13,0.00
2014-8-9,80.1,74.2,69.6,65.2,59.0,53.0,74,60,42,29.92,29.86,12,3,16,0.00
2014-8-10,74.2,69.1,65.3,70.9,66.6,61.0,99,92,74,29.87,29.79,14,2,14,1.02
2014-8-11,74.9,67.6,60.9,66.7,58.1,51.9,99,74,46,29.92,29.80,19,6,19,0.03
2014-8-12,76.5,66.7,56.2,58.1,54.7,50.1,90,67,44,29.95,29.85,14,3,14,0.00
2014-8-13,81.8,71.0,60.9,64.1,58.9,54.4,85,67,45,29.92,29.86,12,1,12,0.00
2014-8-14,78.5,69.4,61.2,63.4,57.5,50.3,85,67,52,29.95,29.81,16,3,16,0.00
2014-8-15,82.2,72.3,62.9,69.1,65.2,60.5,98,80,56,29.81,29.66,13,3,13,0.00
2014-8-16,83.0,73.8,64.5,71.7,68.7,64.5,100,85,64,29.73,29.64,11,2,13,0.00
2014-8-17,73.7,68.5,65.0,70.5,67.6,64.4,100,97,89,29.78,29.67,11,1,11,0.17
2014-8-18,81.1,72.2,66.4,71.8,66.5,61.4,100,84,53,29.67,29.46,14,2,14,0.00
2014-8-19,80.3,69.8,61.6,68.8,64.1,60.8,100,83,57,29.62,29.49,11,2,11,0.03
2014-8-20,81.2,71.2,62.4,68.0,65.4,62.2,100,83,61,29.69,29.61,13,2,13,0.01
2014-8-21,78.3,72.0,65.2,72.9,69.5,65.2,100,92,83,29.68,29.55,20,2,20,1.92
2014-8-22,79.2,72.7,68.4,70.9,69.4,67.4,100,90,73,29.85,29.67,7,0,7,0.00
2014-8-23,75.1,69.2,64.3,72.1,67.7,64.3,100,95,80,29.83,29.69,13,2,13,0.00
2014-8-24,84.3,75.9,66.9,75.1,70.6,60.8,98,84,68,29.69,29.56,21,5,21,0.10
2014-8-25,72.3,65.4,59.5,62.8,57.0,51.7,99,75,56,29.92,29.65,18,2,18,0.00
2014-8-26,71.8,60.2,49.6,59.5,52.7,47.1,97,77,54,30.06,29.91,10,1,10,0.01
2014-8-27,75.3,65.4,56.5,60.2,57.5,54.4,98,77,52,30.06,29.94,12,1,12,0.00
2014-8-28,70.8,65.2,60.1,65.7,61.3,56.6,99,88,73,29.95,29.70,19,3,19,0.07
2014-8-29,72.3,68.2,65.3,71.1,67.4,64.1,100,98,88,29.70,29.55,12,1,12,1.16
2014-8-30,73.9,67.6,63.5,67.8,65.6,63.0,100,94,75,29.69,29.60,8,0,8,0.02
2014-8-31,80.7,68.3,61.6,71.1,65.5,61.6,100,92,69,29.70,29.43,16,4,20,1.31
2014-9-1,74.6,67.3,62.1,65.2,60.8,54.8,100,82,52,29.64,29.44,12,2,16,0.16
2014-9-2,75.3,66.9,54.4,59.3,56.5,51.3,100,72,45,29.72,29.64,17,3,17,0.00
2014-9-3,73.7,64.2,58.1,69.9,61.8,55.5,100,92,83,29.68,29.47,27,4,27,0.90
2014-9-4,78.5,69.8,60.4,74.0,66.6,53.5,100,90,72,29.75,29.38,20,3,20,0.02
2014-9-5,66.0,59.5,52.5,53.7,50.2,46.5,93,72,54,30.02,29.74,18,4,18,0.00
2014-9-6,71.6,64.7,58.9,58.2,52.7,47.3,74,65,58,30.04,29.95,0,0,0,0.00
2014-9-7,72.0,65.7,53.6,60.0,54.0,40.7,86,66,60,29.96,29.81,3,0,3,0.00
2014-9-8,70.6,65.6,61.6,62.1,56.3,51.4,79,72,62,29.81,29.61,0,0,0,0.00
2014-9-9,68.8,65.8,60.1,64.8,59.8,53.4,100,81,70,29.67,29.58,0,0,0,0.00
2014-9-10,62.1,50.3,41.6,56.5,47.0,39.4,100,89,82,30.02,29.57,19,4,19,0.10
2014-9-11,58.9,53.4,40.5,51.9,44.3,39.0,95,72,59,30.24,30.02,5,0,6,0.00
2014-9-12,58.1,53.3,39.2,43.9,41.7,37.2,97,65,55,30.30,30.20,0,0,0,0.01
2014-9-13,59.9,47.9,36.5,43.4,38.5,34.1,97,72,46,30.22,29.96,24,4,24,0.00
2014-9-14,59.8,51.9,41.2,45.9,43.6,40.4,99,75,51,30.01,29.92,11,2,16,0.00
2014-9-15,61.5,52.3,45.4,46.2,41.6,35.5,95,70,41,30.10,29.99,15,2,15,0.00
2014-9-16,67.1,53.9,40.2,49.1,42.6,37.0,89,68,42,30.06,29.82,13,2,13,0.00
2014-9-17,74.7,61.9,51.7,57.4,52.6,48.2,95,73,49,29.86,29.76,6,0,7,0.00
2014-9-18,73.3,57.3,45.8,57.9,51.2,45.5,100,82,49,29.94,29.78,16,4,18,0.00
2014-9-19,68.9,62.0,57.3,65.6,59.1,51.6,100,90,76,29.78,29.46,21,5,21,0.01
2014-9-20,75.4,62.6,54.4,64.2,56.8,50.5,100,83,50,29.72,29.48,22,3,22,0.34
2014-9-21,64.7,56.0,49.1,52.4,49.9,47.2,95,81,60,30.09,29.71,17,4,17,0.00
2014-9-22,71.6,57.3,43.2,53.7,49.3,43.2,100,78,45,30.12,29.99,8,1,11,0.01
2014-9-23,72.3,60.5,48.5,56.4,51.6,47.2,97,74,50,30.03,29.94,16,4,19,0.00
2014-9-24,66.0,60.0,56.6,57.6,55.7,51.9,98,86,69,29.98,29.93,25,5,25,0.04
2014-9-25,78.1,65.2,54.8,65.5,60.3,54.8,100,86,61,30.01,29.95,16,3,16,0.01
2014-9-26,79.0,67.6,57.0,61.4,58.6,55.3,95,75,51,29.99,29.90,18,4,18,0.00
2014-9-27,80.5,69.5,60.4,62.7,59.5,57.6,95,72,48,29.94,29.87,21,4,21,0.00
2014-9-28,80.7,67.9,58.0,62.1,59.2,57.0,99,76,46,29.95,29.85,14,2,16,0.05
2014-9-29,63.1,53.0,43.0,58.4,48.7,40.8,94,86,75,30.06,29.94,13,4,14,0.03
2014-9-30,57.1,48.2,40.9,48.3,43.3,39.2,95,84,67,30.03,29.74,16,6,20,0.00
2014-10-1,59.6,54.4,51.6,55.2,51.2,47.4,96,89,82,29.76,29.66,19,7,19,0.00
2014-10-2,56.3,52.7,48.0,55.5,51.4,46.6,97,95,87,29.79,29.67,10,1,10,0.28
2014-10-3,52.1,43.2,38.4,47.9,34.2,25.9,90,72,47,29.80,29.66,33,10,33,0.01
2014-10-4,47.9,41.1,35.0,34.0,30.8,28.2,80,67,52,29.78,29.64,28,7,28,0.00
2014-10-5,48.4,40.1,31.4,38.0,33.1,28.3,93,77,55,29.66,29.50,16,2,18,0.00
2014-10-6,62.7,47.1,32.4,43.6,37.2,30.3,93,71,44,29.51,29.34,21,4,21,0.00
2014-10-7,58.1,49.4,41.5,43.5,36.5,26.5,86,63,32,29.81,29.40,27,4,27,0.00
2014-10-8,55.4,45.6,35.8,37.0,32.5,28.3,89,62,38,30.06,29.80,21,4,21,0.00
2014-10-9,53.9,42.8,32.1,34.8,31.9,28.5,88,67,46,30.19,30.05,11,3,11,0.00
2014-10-10,52.9,43.1,32.3,37.1,32.1,29.8,93,67,44,30.24,30.15,14,2,14,0.00
2014-10-11,57.5,44.8,33.1,36.5,32.3,29.5,89,64,36,30.18,29.88,15,4,20,0.00
2014-10-12,63.1,50.1,39.1,46.0,38.1,32.2,88,66,37,29.88,29.64,25,9,25,0.00
2014-10-13,52.1,50.3,47.1,50.6,48.1,45.2,96,92,84,29.78,29.66,16,4,16,0.05
2014-10-14,64.5,52.4,44.4,47.2,41.5,36.0,95,70,36,29.95,29.76,22,5,22,0.00
2014-10-15,68.3,55.9,42.1,43.5,38.8,34.6,82,55,31,29.97,29.77,9,2,9,0.00
2014-10-16,71.6,56.3,43.3,48.6,42.1,35.6,81,60,40,29.77,29.47,24,6,24,0.00
2014-10-17,53.7,50.5,46.0,48.5,43.2,39.5,84,76,65,30.03,29.52,26,9,26,0.00
2014-10-18,47.7,43.1,36.6,41.2,38.3,34.6,94,83,72,30.17,30.01,13,3,13,0.00
2014-10-19,69.4,53.3,36.8,47.4,42.1,34.9,94,69,41,30.01,29.72,21,7,21,0.00
2014-10-20,63.2,53.3,43.5,45.2,41.3,37.7,82,65,42,30.02,29.82,19,5,19,0.00
2014-10-21,58.1,48.1,38.9,43.1,40.2,36.4,93,75,55,30.10,30.01,19,6,19,0.00
2014-10-22,62.6,51.9,42.2,47.3,42.1,37.6,84,70,53,30.07,29.89,29,13,29,0.00
2014-10-23,68.8,55.5,48.0,54.6,46.6,38.5,97,76,33,29.92,29.85,15,4,15,0.11
2014-10-24,70.5,56.4,46.4,53.5,45.2,40.0,83,67,42,29.86,29.74,16,4,16,0.00
2014-10-25,60.9,53.7,42.9,42.2,32.6,24.4,66,46,25,30.00,29.83,23,6,23,0.00
2014-10-26,63.1,52.0,39.5,34.4,29.2,25.9,66,43,26,29.97,29.53,22,6,22,0.00
2014-10-27,60.4,48.2,40.1,46.7,39.1,32.7,95,72,49,29.65,29.47,17,4,17,0.07
2014-10-28,44.5,40.2,37.9,39.9,35.6,30.7,96,83,71,29.95,29.63,27,7,27,0.00
2014-10-29,42.3,37.1,35.0,33.7,31.6,29.8,88,80,71,30.12,29.95,24,5,24,0.00
2014-10-30,44.9,38.9,29.6,39.7,32.6,16.5,90,79,55,30.38,29.98,28,5,28,0.00
2014-10-31,40.0,31.0,23.8,22.7,18.9,16.3,79,62,44,30.56,30.38,12,3,14,0.00
2014-11-1,44.2,32.8,22.5,24.4,20.8,16.6,83,62,40,30.44,30.08,23,10,23,0.00
2014-11-2,55.4,44.2,34.7,34.4,28.6,22.8,67,55,39,30.08,29.76,28,12,28,0.00
2014-11-3,49.2,44.4,39.6,43.8,38.9,33.5,89,81,67,29.80,29.66,21,5,21,0.01
2014-11-4,47.9,39.8,31.3,36.8,32.5,27.3,89,75,63,29.96,29.80,23,5,23,0.00
2014-11-5,41.2,36.3,32.0,39.0,33.9,28.0,95,91,82,30.05,29.83,15,3,15,0.20
2014-11-6,41.0,34.9,30.8,34.5,31.3,28.5,93,87,74,30.28,30.05,12,5,15,0.00
2014-11-7,46.7,38.2,30.5,43.4,33.7,28.7,94,84,71,30.15,29.60,35,10,35,0.02
2014-11-8,39.7,36.0,31.2,31.0,27.3,23.3,83,71,55,30.01,29.74,30,8,31,0.00
2014-11-9,38.2,33.1,27.9,32.3,22.2,12.7,89,65,40,29.78,29.68,18,4,18,0.00
2014-11-10,29.1,24.1,21.6,23.7,21.2,14.0,93,89,53,29.98,29.65,26,8,26,0.00
2014-11-11,23.5,20.6,14.9,20.4,16.7,10.1,92,85,74,30.27,29.97,20,8,20,0.00
2014-11-12,24.7,19.8,13.8,19.6,15.9,10.9,89,85,74,30.35,30.26,16,5,16,0.00
2014-11-13,21.0,17.7,10.1,17.5,12.9,6.8,88,81,69,30.41,30.35,16,7,22,0.00
2014-11-14,18.2,9.0,-0.3,11.7,5.0,-4.0,91,84,71,30.41,30.33,10,2,12,0.00
2014-11-15,20.0,13.9,2.8,17.2,11.3,-0.4,92,89,84,30.34,30.10,9,1,9,0.00
2014-11-16,18.0,9.3,-1.3,15.2,5.2,-4.9,89,83,75,30.10,29.83,21,6,21,0.00
2014-11-17,15.7,9.3,5.3,8.4,3.7,0.9,84,78,68,30.05,29.93,21,9,27,0.00
2014-11-18,16.8,12.4,5.7,13.9,7.5,1.1,88,80,72,30.04,29.72,18,7,20,0.00
2014-11-19,24.2,19.3,12.1,17.8,13.6,7.2,89,78,67,29.98,29.71,24,8,24,0.00
2014-11-20,15.7,9.1,1.1,7.8,2.7,-2.2,88,75,65,30.25,29.98,17,4,17,0.00
2014-11-21,30.2,18.2,-0.3,27.0,14.1,-3.7,88,84,77,30.26,29.80,31,12,31,0.00
2014-11-22,37.1,31.1,23.8,36.3,29.6,22.0,97,94,87,29.81,29.41,21,9,21,0.00
2014-11-23,40.1,36.2,29.7,38.8,34.1,25.5,97,92,81,29.44,29.33,23,6,23,0.08
2014-11-24,29.7,17.4,12.1,26.1,13.3,8.0,89,84,78,29.94,29.31,27,12,27,0.00
2014-11-25,23.9,15.9,5.2,17.1,10.5,1.7,89,79,69,30.07,29.94,12,4,12,0.00
2014-11-26,24.2,19.5,3.5,19.3,13.8,-3.5,91,78,60,30.44,30.00,20,5,20,0.00
2014-11-27,7.3,2.1,-6.2,1.8,-3.8,-10.5,85,76,60,30.54,30.25,14,5,14,0.00
2014-11-28,20.5,15.0,5.4,17.7,11.0,1.8,89,84,79,30.25,29.64,16,5,16,0.00
2014-11-29,32.3,24.7,17.1,27.0,21.4,11.6,93,87,78,29.70,29.38,22,6,22,0.02
2014-11-30,17.0,7.9,2.7,11.6,0.7,-3.2,83,72,63,30.51,29.71,21,8,21,0.00
2014-12-1,5.2,-0.7,-6.1,-1.8,-9.4,-14.2,74,66,53,30.79,30.34,27,7,27,0.00
2014-12-2,22.3,15.2,4.2,15.7,9.3,-2.5,86,77,71,30.34,29.94,29,11,29,0.00
2014-12-3,19.4,14.7,8.9,10.8,8.8,3.7,87,77,67,30.31,30.00,20,5,20,0.00
2014-12-4,30.0,22.2,14.4,17.7,14.0,10.0,86,71,50,30.31,30.04,24,9,24,0.00
2014-12-5,31.4,26.7,20.3,29.2,24.3,16.9,95,90,80,30.42,30.03,10,4,11,0.00
2014-12-6,28.8,22.0,11.8,20.3,16.1,8.7,89,78,62,30.65,30.41,14,4,14,0.00
2014-12-7,33.1,29.4,23.9,32.2,26.6,19.8,97,89,81,30.48,29.95,33,14,33,0.00
2014-12-8,34.3,25.9,17.2,33.5,22.7,13.2,97,87,79,30.34,29.93,25,8,25,0.04
2014-12-9,20.6,18.4,13.3,18.9,15.8,9.6,94,90,83,30.48,30.34,15,3,15,0.00
2014-12-10,28.7,25.3,20.6,26.6,23.7,18.9,95,94,91,30.40,30.22,22,8,22,0.00
2014-12-11,32.4,29.2,26.7,31.6,28.2,25.7,97,96,95,30.23,30.13,17,8,17,0.00
2014-12-12,36.3,33.4,32.1,35.5,32.4,31.0,98,96,95,30.15,30.00,18,10,21,0.00
2014-12-13,44.1,39.3,34.4,43.0,38.8,33.9,98,98,94,30.00,29.83,13,7,15,0.00
2014-12-14,47.7,44.7,40.4,47.2,44.2,39.9,98,98,98,29.84,29.71,12,5,12,0.03
2014-12-15,40.5,33.7,23.4,39.9,32.9,21.4,98,97,92,29.92,29.64,27,7,27,0.37
2014-12-16,23.4,16.9,9.8,21.4,13.6,6.9,92,87,81,30.30,29.92,24,10,27,0.00
2014-12-17,19.6,12.5,7.7,13.9,9.1,5.0,91,86,78,30.35,30.29,12,3,12,0.00
2014-12-18,20.8,16.1,10.0,17.1,13.0,7.7,91,87,80,30.35,30.25,11,3,11,0.00
2014-12-19,30.2,25.3,20.0,28.9,23.7,17.0,95,94,88,30.26,30.09,15,8,15,0.00
2014-12-20,30.7,30.0,29.1,29.9,28.4,27.3,97,94,89,30.10,29.99,19,10,19,0.00
2014-12-21,36.1,33.2,30.1,35.6,32.5,28.8,98,97,95,29.99,29.62,18,10,18,0.00
2014-12-22,37.4,35.5,33.8,36.8,34.9,33.0,98,97,96,29.62,29.51,19,9,19,0.17
2014-12-23,35.8,34.5,33.6,34.0,32.9,32.0,97,94,91,29.86,29.60,20,6,20,0.00
2014-12-24,34.2,32.1,29.6,32.6,30.6,28.1,97,94,90,29.85,29.52,18,5,18,0.00
2014-12-25,32.6,30.7,29.1,31.2,29.2,27.3,97,94,92,29.86,29.52,16,4,16,0.00
2014-12-26,31.5,28.0,23.8,28.4,25.1,20.5,96,89,83,30.09,29.83,16,4,16,0.01
2014-12-27,23.8,19.2,11.7,20.8,14.7,8.6,91,83,57,30.09,30.03,16,7,16,0.00
2014-12-28,23.7,15.9,8.9,19.1,10.9,2.3,94,81,57,30.40,30.05,10,3,12,0.00
2014-12-29,8.9,4.3,-1.2,2.8,-2.6,-7.8,84,73,57,30.74,30.40,14,4,14,0.00
2014-12-30,2.9,-1.7,-4.8,-4.2,-7.3,-9.4,83,77,69,30.82,30.61,15,6,15,0.00
2014-12-31,15.5,6.4,-4.6,11.3,1.2,-8.2,87,79,66,30.61,29.95,24,10,26,0.00
2015-1-1,29.4,20.5,9.2,23.8,14.5,-0.2,88,78,56,30.17,29.82,17,7,17,0.00
2015-1-2,28.9,18.9,6.2,23.4,13.8,1.0,91,80,68,30.19,29.94,21,8,21,0.00